This demonstration page uses our WeatherBlox Daily Observations layout. Learn more.

Left ArrowRight Arrow

Hourly Observations for January 30, 2020

Temp ( °F °C ) Dew Point ( °F °C ) Humidity (%) Winds ( mph kmh ) Pressure ( in mb ) Visibility ( mi km ) Precip ( " mm )
12:53 am 00:53 Clear 39 3.9 33 0.6 79 79 Calm 30.04 1017 10 16 0.00 0.00
1:53 am 01:53 Clear 38 3.3 34 1.1 86 86 Calm 30.05 1018 10 16 0.00 0.00
2:53 am 02:53 Clear 35 1.7 33 0.6 93 93 Calm 30.04 1017 10 16 0.00 0.00
3:53 am 03:53 Clear 36 2.2 33 0.6 89 89 Calm 30.05 1018 10 16 0.00 0.00
4:53 am 04:53 Clear 33 0.6 31 -0.6 92 92 Calm 30.06 1018 9 14 0.00 0.00
5:53 am 05:53 Clear 33 0.6 30 -1.1 89 89 Calm 30.09 1019 10 16 0.00 0.00
6:53 am 06:53 Clear 32 0 30 -1.1 92 92 Calm 30.12 1020 10 16 0.00 0.00
7:53 am 07:53 Sunny with Mist and Fog 31 -0.6 29 -1.7 92 92 Calm 30.14 1021 6 10 0.00 0.00
8:53 am 08:53 Sunny 39 3.9 35 1.7 86 86 Calm 30.15 1021 10 16 0.00 0.00
9:53 am 09:53 Sunny 45 7.2 37 2.8 74 74 NE 7 11 30.16 1021 10 16 0.00 0.00
10:53 am 10:53 Sunny 50 10 39 3.9 66 66 VRB 3 6 30.17 1022 10 16 0.00 0.00
11:53 am 11:53 Mostly Sunny 53 11.7 39 3.9 59 59 SE 8 13 30.15 1021 10 16 0.00 0.00
12:53 pm 12:53 Mostly Sunny 55 12.8 39 3.9 55 55 NNE 10 17 30.11 1020 10 16 0.00 0.00
1:53 pm 13:53 Sunny 56 13.3 37 2.8 49 49 ENE 6 9 30.10 1019 10 16 0.00 0.00
2:53 pm 14:53 Sunny 58 14.4 38 3.3 48 48 Calm 30.09 1019 10 16 0.00 0.00
3:53 pm 15:53 Sunny 58 14.4 37 2.8 46 46 Calm 30.09 1019 10 16 0.00 0.00
4:53 pm 16:53 Sunny 58 14.4 37 2.8 46 46 E 8 13 30.10 1019 10 16 0.00 0.00
5:53 pm 17:53 Sunny 56 13.3 37 2.8 49 49 E 6 9 30.11 1020 10 16 0.00 0.00
6:53 pm 18:53 Mostly Clear 54 12.2 37 2.8 53 53 ESE 3 6 30.12 1020 10 16 0.00 0.00
7:53 pm 19:53 Clear 52 11.1 37 2.8 57 57 ESE 5 7 30.14 1021 10 16 0.00 0.00
8:53 pm 20:53 Clear 44 6.7 38 3.3 79 79 ENE 3 6 30.14 1021 10 16 0.00 0.00
9:53 pm 21:53 Clear 42 5.6 37 2.8 82 82 Calm 30.15 1021 10 16 0.00 0.00
10:53 pm 22:53 Clear 40 4.4 36 2.2 86 86 Calm 30.16 1021 10 16 0.00 0.00
11:53 pm 23:53 Clear 40 4.4 36 2.2 86 86 Calm 30.16 1021 10 16 0.00 0.00

Powered by AerisWeather